Date,TemperatureHighF,TemperatureAvgF,TemperatureLowF,DewpointHighF,DewpointAvgF,DewpointLowF,HumidityHigh,HumidityAvg,HumidityLow,PressureMaxIn,PressureMinIn,WindSpeedMaxMPH,WindSpeedAvgMPH,GustSpeedMaxMPH,PrecipitationSumIn
2013-3-1,47.0,40.6,35.6,37.0,33.5,29.0,94,77,61,29.74,29.57,15,8,23,0.00
2013-3-2,41.6,36.8,33.1,32.0,29.4,28.0,83,75,61,29.75,29.68,20,11,24,0.00
2013-3-3,38.5,34.2,30.7,28.0,26.7,25.0,84,74,64,29.70,29.62,20,10,22,0.00
2013-3-4,41.6,34.2,29.3,28.0,25.1,23.0,84,70,57,29.82,29.68,30,17,37,0.00
2013-3-5,49.1,37.6,30.9,35.0,29.2,24.0,89,72,50,30.08,29.82,22,8,28,0.00
2013-3-6,44.0,38.3,34.1,37.0,33.9,31.0,90,84,68,30.06,29.91,28,12,38,0.02
2013-3-7,41.0,36.3,32.4,33.0,30.7,29.0,90,80,68,30.00,29.88,32,17,44,0.02
2013-3-8,38.1,33.6,31.2,32.0,30.6,28.0,94,89,68,30.12,29.93,24,11,30,0.29
2013-3-9,54.6,40.6,33.4,36.0,28.4,23.0,82,64,34,30.37,30.13,16,8,20,0.16
2013-3-10,43.6,36.2,30.2,35.0,31.9,28.0,93,84,73,30.44,30.36,13,5,19,0.00
2013-3-11,47.0,40.7,35.7,42.0,37.9,33.0,95,90,83,30.38,30.18,12,6,14,0.00
2013-3-12,49.8,46.2,41.8,49.0,44.5,41.0,96,93,88,30.18,29.76,27,12,44,0.45
2013-3-13,47.0,41.7,37.7,42.0,34.9,31.0,96,77,56,29.86,29.78,24,12,29,0.01
2013-3-14,40.0,33.3,30.1,33.0,22.3,17.0,89,65,49,29.92,29.81,32,16,41,0.00
2013-3-15,40.2,34.0,28.0,34.0,22.9,14.0,80,64,53,29.97,29.75,30,20,40,0.00
2013-3-16,38.7,35.3,30.9,31.0,23.8,12.0,83,64,36,29.92,29.76,21,9,26,0.00
2013-3-17,40.6,34.0,29.1,29.0,18.4,13.0,83,55,36,30.34,29.92,18,10,26,0.00
2013-3-18,34.8,30.9,23.9,29.0,17.2,7.0,87,58,32,30.48,30.16,25,9,26,0.00
2013-3-19,41.6,36.4,32.3,40.0,34.5,29.0,95,93,88,30.15,29.61,27,13,33,0.57
2013-3-20,40.1,36.2,32.4,32.0,27.0,23.0,92,70,57,29.86,29.75,36,19,41,0.00
2013-3-21,40.2,35.4,31.5,33.0,26.4,23.0,83,70,58,29.86,29.64,14,7,20,0.00
2013-3-22,39.9,34.5,28.4,27.0,22.9,17.0,75,63,53,29.84,29.68,34,18,38,0.00
2013-3-23,45.2,38.5,34.5,28.0,25.0,21.0,74,60,39,29.89,29.74,34,21,40,0.00
2013-3-24,49.3,38.7,33.7,33.0,27.4,23.0,81,65,42,29.92,29.74,23,10,26,0.00
2013-3-25,45.5,38.2,34.6,34.0,31.2,28.0,91,77,58,29.79,29.47,19,8,29,0.08
2013-3-26,46.5,39.2,35.2,35.0,31.9,28.0,90,75,61,29.85,29.55,15,6,20,0.01
2013-3-27,47.3,40.5,33.4,35.0,30.2,25.0,77,67,50,29.92,29.81,26,10,28,0.00
2013-3-28,49.0,41.5,37.7,37.0,34.6,31.0,88,77,57,30.08,29.91,13,7,16,0.00
2013-3-29,48.5,43.3,38.6,39.0,36.3,33.0,88,76,66,30.11,30.03,20,10,23,0.00
2013-3-30,49.2,43.4,38.6,38.0,35.0,32.0,87,73,51,30.16,30.07,20,10,26,0.00
2013-3-31,50.4,42.9,33.5,43.0,38.8,32.0,95,85,68,30.17,29.68,22,6,27,0.10